Terminal Aerodrome Forecast
Issued by NWS Wilmington, NC

Home | Current Version | Previous Version | Text Only | Print | Product List | Glossary On
Versions: 1 2 3 4 5 6 7 8 9 10 11 12 13 14 15
000
FTUS42 KILM 310920 AAA
TAFFLO
TAF AMD
KFLO 310920Z 3109/0106 08005KT 6SM -RA OVC012
     FM311100 11004KT 5SM -SHRA SCT003 BKN012 BKN025
     FM311600 12008KT P6SM VCSH SCT015 SCT025 BKN050
     FM312200 VRB03KT P6SM SCT025 SCT050=

USA.gov is the U.S. government's official web portal to all federal, state and local government web resources and services.